Weather History for Concord, NC

Change the Weather History Date:

Thursday, August 29, 2013

  Actual Average (KCLT) Record (KCLT)
Temperature  
Mean Temperature 81 °F 76 °F  
Max Temperature 89 °F 86 °F 100 °F (1948)
Min Temperature 73 °F 66 °F 54 °F (1968)
Degree Days  
Heating Degree Days 0 0  
Month to date heating degree days 0  
Since 1 June heating degree days 3  
Since 1 July heating degree days 0  
Cooling Degree Days 16 11  
Month to date cooling degree days 361  
Year to date cooling degree days 1255  
Since 1 June cooling degree days 1092  
Growing Degree Days 31 (Base 50)    
Moisture  
Dew Point 70 °F    
Average Humidity 73    
Maximum Humidity 88    
Minimum Humidity 52    
Precipitation  
Precipitation 0.00 in 0.13 in 1.42 in (1890)
Month to date precipitation 3.98  
Year to date precipitation 28.36  
Snow  
Snow 0.00 in 0.00 in 0.00 in ()
Month to date snowfall 0.0  
Since 1 June snowfall 0.0  
Since 1 July snowfall 0.0  
Snow Depth -    
Sea Level Pressure  
Sea Level Pressure 29.98 in    
Wind  
Wind Speed 3 mph (NNE)    
Max Wind Speed 9 mph    
Max Gust Speed -    
Visibility 9 miles    
Events      
T = Trace of Precipitation, MM = Missing Value Source: NWS Daily Summary

Daily Weather History Graph

Daily Weather History Graph

Search for Another Location

Airport:

Trip Planner

Search our weather history database for the weather conditions in past years. The results will help you decide how hot, cold, wet, or windy it might be!

Date:

Astronomy

Aug. 29, 2013 Rise Set
Actual Time 6:53 AM EDT 7:53 PM EDT
Civil Twilight 6:26 AM EDT 8:19 PM EDT
Nautical Twilight 5:55 AM EDT 8:50 PM EDT
Astronomical Twilight 5:23 AM EDT 9:22 PM EDT
Moon 12:49 AM EDT (8/29) 3:14 PM EDT (8/29)
Length of Visible Light 13h 52m
Length of Day
13h 00m
Last Quarter, 38% of the Moon is Illuminated
Aug 29
Last Quarter
Sep 5
New
Sep 12
First Quarter
Sep 19
Full
Sep 26
Last Quarter

Hourly Weather History & Observations

Time (EDT) Temp. Heat Index Dew Point Humidity Pressure Visibility Wind Dir Wind Speed Gust Speed Precip Events Conditions
12:35 AM 77.0 °F - 69.8 °F 78% 29.97 in 7.0 mi SW 4.6 mph - N/A   Clear
12:55 AM 77.0 °F - 69.8 °F 78% 29.96 in 7.0 mi SSW 3.5 mph - N/A   Clear
1:15 AM 77.0 °F - 69.8 °F 78% 29.95 in 7.0 mi SSW 3.5 mph - N/A   Clear
1:35 AM 77.0 °F - 69.8 °F 78% 29.96 in 7.0 mi Calm Calm - N/A   Clear
1:55 AM 77.0 °F - 69.8 °F 78% 29.96 in 7.0 mi Calm Calm - N/A   Clear
2:15 AM 77.0 °F - 69.8 °F 78% 29.96 in 7.0 mi West 3.5 mph - N/A   Clear
2:35 AM 77.0 °F - 69.8 °F 78% 29.96 in 7.0 mi Calm Calm - N/A   Clear
2:55 AM 77.0 °F - 69.8 °F 78% 29.95 in 7.0 mi Calm Calm - N/A   Clear
3:15 AM 77.0 °F - 69.8 °F 78% 29.95 in 7.0 mi Calm Calm - N/A   Clear
3:35 AM 77.0 °F - 69.8 °F 78% 29.96 in 10.0 mi Calm Calm - N/A   Clear
3:55 AM 77.0 °F - 69.8 °F 78% 29.95 in 7.0 mi WSW 3.5 mph - N/A   Clear
4:15 AM 77.0 °F - 69.8 °F 78% 29.95 in 7.0 mi Calm Calm - N/A   Clear
4:35 AM 75.2 °F - 69.8 °F 83% 29.95 in 7.0 mi Calm Calm - N/A   Scattered Clouds
4:55 AM 75.2 °F - 69.8 °F 83% 29.95 in 7.0 mi Calm Calm - N/A   Scattered Clouds
5:15 AM 75.2 °F - 68.0 °F 78% 29.95 in 10.0 mi Calm Calm - N/A   Scattered Clouds
5:55 AM 73.4 °F - 69.8 °F 88% 29.96 in 7.0 mi Calm Calm - N/A   Overcast
6:15 AM 75.2 °F - 69.8 °F 83% 29.96 in 7.0 mi Calm Calm - N/A   Overcast
6:55 AM 73.4 °F - 69.8 °F 88% 29.96 in 7.0 mi Calm Calm - N/A   Mostly Cloudy
7:15 AM 73.4 °F - 69.8 °F 88% 29.97 in 7.0 mi Calm Calm - N/A   Mostly Cloudy
7:55 AM 75.2 °F - 69.8 °F 83% 29.99 in 10.0 mi Calm Calm - N/A   Mostly Cloudy
8:55 AM 80.6 °F 84.6 °F 71.6 °F 74% 29.99 in 10.0 mi WNW 4.6 mph - N/A   Scattered Clouds
9:55 AM 84.2 °F 89.6 °F 71.6 °F 66% 29.99 in 10.0 mi NW 4.6 mph - N/A   Clear
10:55 AM 87.8 °F 92.6 °F 69.8 °F 55% 30.00 in 10.0 mi WNW 5.8 mph - N/A   Scattered Clouds
11:55 AM 89.6 °F 94.7 °F 69.8 °F 52% 29.99 in 10.0 mi North 8.1 mph - N/A   Scattered Clouds
12:55 PM 89.6 °F 94.7 °F 69.8 °F 52% 29.99 in 10.0 mi North 6.9 mph - N/A   Scattered Clouds
1:55 PM 89.6 °F 94.7 °F 69.8 °F 52% 29.99 in 10.0 mi North 9.2 mph - N/A   Scattered Clouds
2:55 PM 89.6 °F 94.7 °F 69.8 °F 52% 29.97 in 10.0 mi NNE 9.2 mph - N/A   Scattered Clouds
3:55 PM 89.6 °F 94.7 °F 69.8 °F 52% 29.96 in 10.0 mi ENE 4.6 mph - N/A   Scattered Clouds
4:55 PM 87.8 °F 93.8 °F 71.6 °F 58% 29.96 in 10.0 mi ENE 4.6 mph - N/A   Scattered Clouds
5:55 PM 86.0 °F 91.8 °F 71.6 °F 62% 29.97 in 10.0 mi NE 6.9 mph - N/A   Scattered Clouds
6:55 PM 84.2 °F 89.6 °F 71.6 °F 66% 29.97 in 10.0 mi ENE 4.6 mph - N/A   Clear
7:55 PM 82.4 °F 87.2 °F 71.6 °F 70% 29.99 in 10.0 mi East 4.6 mph - N/A   Clear
8:55 PM 80.6 °F 84.6 °F 71.6 °F 74% 30.01 in 10.0 mi Calm Calm - N/A   Scattered Clouds
9:15 PM 80.6 °F 83.9 °F 69.8 °F 70% 30.02 in 10.0 mi Calm Calm - N/A   Scattered Clouds
9:35 PM 80.6 °F 83.9 °F 69.8 °F 70% 30.02 in 10.0 mi East 3.5 mph - N/A   Mostly Cloudy
9:55 PM 80.6 °F 83.9 °F 69.8 °F 70% 30.03 in 10.0 mi ENE 3.5 mph - N/A   Overcast
10:15 PM 78.8 °F - 69.8 °F 74% 30.03 in 10.0 mi ENE 3.5 mph - N/A   Overcast
10:35 PM 78.8 °F - 69.8 °F 74% 30.03 in 10.0 mi Calm Calm - N/A   Mostly Cloudy
10:55 PM 78.8 °F - 69.8 °F 74% 30.03 in 10.0 mi Calm Calm - N/A   Scattered Clouds
11:15 PM 77.0 °F - 69.8 °F 78% 30.05 in 10.0 mi Calm Calm - N/A   Scattered Clouds
11:35 PM 77.0 °F - 69.8 °F 78% 30.05 in 10.0 mi NNE 3.5 mph - N/A   Scattered Clouds
11:55 PM 77.0 °F - 68.0 °F 74% 30.05 in 10.0 mi NE 3.5 mph - N/A   Scattered Clouds